Regional Weather Roundup
Issued by NWS

Home | Current Version | Previous Version | Text Only | Print | Product List | Glossary On
Versions: 1 2 3 4 5 6 7 8 9 10 11 12 13 14 15 16 17 18 19 20 21 22 23 24 25 26 27 28 29 30 31 32 33 34 35 36 37 38 39 40 41 42 43 44 45 46 47 48 49 50
000
ASUS43 KFSD 232210
RWRSD

WEATHER ROUNDUP FOR SOUTH DAKOTA
NATIONAL WEATHER SERVICE SIOUX FALLS SD
400 PM CST FRI FEB 23 2018

NOTE: "FAIR" INDICATES FEW OR NO CLOUDS BELOW 12,000 FEET WITH NO
SIGNIFICANT WEATHER AND/OR OBSTRUCTIONS TO VISIBILITY.


SDZ001>005-009-010-012>017-232300-
NORTHWEST AND NORTH CENTRAL SOUTH DAKOTA

CITY           SKY/WX    TMP DP  RH WIND       PRES   REMARKS
BUFFALO          N/A      9   0  67 E5        30.02F WCI   1
FAITH            N/A     10   2  69 CALM      30.14F
MOBRIDGE       SUNNY     16   6  65 SW3       30.19F
$$

SDZ012>016-024>037-041>051-057-063-072>074-232300-
SOUTHWEST AND SOUTH CENTRAL SOUTH DAKOTA

CITY           SKY/WX    TMP DP  RH WIND       PRES   REMARKS
RAPID CTY ARPT SUNNY     18   9  68 SE15      30.09F WCI   4
PIERRE         SUNNY     13   6  74 NW5       30.23F WCI   5
CUSTER         SUNNY     24   4  42 S9        29.95S WCI  14
ELLSWORTH AFB  SUNNY     20   9  61 S14       30.06F WCI   7
PHILIP         SUNNY     14   5  67 SW6       30.20S WCI   5
PINE RIDGE     SUNNY     25  12  58 VRB5      30.11F WCI  19
WINNER         FAIR      18   8  65 W3        30.24S
$$

SDZ004>011-016>023-039-040-232300-
NORTHEAST SOUTH DAKOTA

CITY           SKY/WX    TMP DP  RH WIND       PRES   REMARKS
ABERDEEN       SUNNY     20   9  62 N3        30.26S
WATERTOWN      SUNNY     20  15  81 W10       30.21S WCI   9
BROOKINGS      CLOUDY    23  17  78 SW8       30.24R WCI  14
SISSETON         N/A     20  10  65 NW13      30.25R WCI   7
$$

SDZ017-020-022-023-036>040-048>070-232300-
SOUTHEAST SOUTH DAKOTA

CITY           SKY/WX    TMP DP  RH WIND       PRES   REMARKS
SIOUX FALLS    CLOUDY    20  16  84 W6        30.28R WCI  12
HURON          SUNNY     18  11  74 W6        30.28R WCI  10
CHAMBERLAIN    SUNNY     18  11  73 CALM      30.27R
MITCHELL       SUNNY     19  13  77 W8        30.30R WCI   9
YANKTON        CLOUDY    23  17  78 NW5       30.32R WCI  17
$$

ABBREVIATIONS USED IN REMARKS
   TC - TEMPERATURE IN CELSIUS
  WCI - WIND CHILL INDEX
   HX - HEAT INDEX
  VSB - VISIBILITY





USA.gov is the U.S. government's official web portal to all federal, state and local government web resources and services.